| time (UTC) | temp C | wind direction | speed KPH | gust KPH | rain 1hr cm | rain 24hr cm | rain mn cm | humidity % | barometer mb |
| 20260510153101 | 15 | 212 | 0.0 | 0.0 | 0.00 | 1.04 | 0.00 | 85 | 1012.1 |
| 20260510151524 | 16 | 236 | 0.0 | 0.0 | 0.00 | 1.04 | 0.00 | 86 | 1012.1 |
| 20260510150001 | 15 | 232 | 0.0 | 0.0 | 0.00 | 1.04 | 0.00 | 86 | 1012.2 |
| 20260510144609 | 15 | 232 | 0.0 | 0.0 | 0.00 | 1.04 | 0.00 | 90 | 1012.2 |
| 20260510143009 | 15 | 209 | 0.0 | 0.0 | 0.00 | 1.04 | 0.00 | 92 | 1012.1 |
| 20260510141606 | 14 | 194 | 0.0 | 0.0 | 0.00 | 1.04 | 0.00 | 94 | 1012.0 |
| 20260510140022 | 13 | 232 | 0.0 | 0.0 | 0.00 | 1.04 | 0.00 | 96 | 1012.1 |
| 20260510134502 | 13 | 231 | 0.0 | 0.0 | 0.00 | 1.04 | 0.00 | 97 | 1012.1 |
| 20260510133058 | 12 | 219 | 0.0 | 0.0 | 0.00 | 1.04 | 0.00 | 97 | 1012.1 |
| 20260510131522 | 12 | 227 | 0.0 | 0.0 | 0.00 | 1.04 | 0.00 | 97 | 1012.0 |
| 20260510130109 | 12 | 255 | 0.0 | 0.0 | 0.00 | 1.04 | 0.00 | 98 | 1011.8 |
| 20260510124602 | 12 | 255 | 0.0 | 0.0 | 0.00 | 1.07 | 0.00 | 97 | 1012.0 |
| 20260510123012 | 12 | 205 | 0.0 | 0.0 | 0.00 | 1.07 | 0.00 | 97 | 1011.4 |
| 20260510121601 | 11 | 234 | 0.0 | 0.0 | 0.00 | 1.07 | 0.00 | 97 | 1011.4 |
| 20260510120033 | 11 | 221 | 0.0 | 0.0 | 0.00 | 1.07 | 0.00 | 98 | 1011.1 |
| 20260510114614 | 11 | 221 | 0.0 | 0.0 | 0.00 | 1.12 | 0.00 | 97 | 1011.6 |
| 20260510113033 | 11 | 263 | 0.0 | 0.0 | 0.00 | 1.12 | 0.00 | 97 | 1011.8 |
| 20260510111621 | 11 | 263 | 0.0 | 0.0 | 0.00 | 1.12 | 0.00 | 97 | 1011.7 |
| 20260510110038 | 11 | 263 | 0.0 | 0.0 | 0.00 | 1.12 | 0.00 | 97 | 1011.7 |
| 20260510104513 | 11 | 263 | 0.0 | 0.0 | 0.00 | 1.12 | 0.00 | 97 | 1011.8 |
| 20260510103051 | 11 | 280 | 0.0 | 0.0 | 0.00 | 1.12 | 0.00 | 97 | 1011.8 |
| 20260510101515 | 11 | 280 | 0.0 | 0.0 | 0.00 | 1.12 | 0.00 | 97 | 1011.7 |
| 20260510100105 | 11 | 287 | 0.0 | 0.0 | 0.00 | 1.12 | 0.00 | 97 | 1011.8 |
| 20260510094547 | 11 | 238 | 0.0 | 0.0 | 0.00 | 1.12 | 0.00 | 97 | 1011.6 |
| 20260510093003 | 11 | 217 | 0.0 | 0.0 | 0.00 | 1.12 | 0.00 | 97 | 1011.1 |
| 20260510091601 | 11 | 211 | 0.0 | 0.0 | 0.00 | 1.12 | 0.00 | 97 | 1011.0 |
| 20260510090019 | 11 | 211 | 0.0 | 0.0 | 0.00 | 1.12 | 0.00 | 97 | 1011.0 |
| 20260510084621 | 11 | 211 | 0.0 | 0.0 | 0.00 | 1.12 | 0.00 | 97 | 1010.8 |
| 20260510083039 | 11 | 211 | 0.0 | 0.0 | 0.00 | 1.12 | 0.00 | 97 | 1010.9 |
| 20260510081501 | 11 | 211 | 0.0 | 0.0 | 0.00 | 1.12 | 0.00 | 97 | 1010.9 |
| 20260510080055 | 11 | 211 | 0.0 | 0.0 | 0.00 | 1.12 | 0.00 | 97 | 1011.1 |
| 20260510074547 | 11 | 211 | 0.0 | 0.0 | 0.00 | 1.12 | 0.00 | 97 | 1011.0 |
| 20260510073006 | 11 | 208 | 0.0 | 0.0 | 0.00 | 1.12 | 0.00 | 97 | 1010.6 |
| 20260510071610 | 11 | 208 | 0.0 | 0.0 | 0.00 | 1.12 | 0.00 | 97 | 1010.6 |
| 20260510070026 | 11 | 205 | 0.0 | 0.0 | 0.00 | 1.12 | 0.00 | 97 | 1010.4 |
| 20260510064507 | 11 | 204 | 0.0 | 0.0 | 0.00 | 1.12 | 0.00 | 97 | 1010.4 |
| 20260510063107 | 11 | 220 | 0.0 | 0.0 | 0.00 | 1.12 | 0.00 | 97 | 1010.6 |
| 20260510061527 | 10 | 219 | 0.0 | 0.0 | 0.00 | 1.12 | 0.00 | 97 | 1010.7 |
| 20260510060111 | 10 | 214 | 0.0 | 0.0 | 0.00 | 1.12 | 0.00 | 96 | 1010.6 |
| 20260510054549 | 10 | 219 | 0.0 | 0.0 | 0.00 | 1.12 | 0.00 | 96 | 1010.6 |
| 20260510053001 | 10 | 219 | 0.0 | 0.0 | 0.00 | 1.12 | 0.00 | 96 | 1010.3 |
| 20260510051642 | 10 | 219 | 0.0 | 0.0 | 0.00 | 1.12 | 0.00 | 96 | 1010.5 |
| 20260510050009 | 10 | 219 | 0.0 | 0.0 | 0.00 | 1.12 | 0.00 | 96 | 1010.8 |
| 20260510044603 | 10 | 219 | 0.0 | 0.0 | 0.00 | 1.12 | 0.00 | 96 | 1010.7 |
| 20260510043029 | 10 | 219 | 0.0 | 0.0 | 0.00 | 1.12 | 0.00 | 96 | 1010.6 |
| 20260510041621 | 10 | 219 | 0.0 | 0.0 | 0.00 | 1.12 | 0.00 | 96 | 1010.6 |
| 20260510040004 | 10 | 219 | 0.0 | 0.0 | 0.00 | 1.12 | 1.12 | 96 | 1010.7 |
| 20260510034631 | 10 | 219 | 0.0 | 0.0 | 0.03 | 1.12 | 1.12 | 96 | 1010.6 |
| 20260510033056 | 10 | 219 | 0.0 | 0.0 | 0.05 | 1.12 | 1.12 | 96 | 1010.7 |
| 20260510031513 | 10 | 219 | 0.0 | 0.0 | 0.05 | 1.12 | 1.12 | 96 | 1010.8 |
| 20260510030001 | 10 | 219 | 0.0 | 0.0 | 0.05 | 1.12 | 1.12 | 95 | 1010.9 |
| 20260510024557 | 10 | 219 | 0.0 | 0.0 | 0.03 | 1.09 | 1.09 | 96 | 1011.3 |
| 20260510023033 | 10 | 219 | 0.0 | 0.0 | 0.00 | 1.07 | 1.07 | 96 | 1011.6 |
| 20260510021601 | 10 | 219 | 0.0 | 0.0 | 0.00 | 1.07 | 1.07 | 95 | 1011.8 |
| 20260510020024 | 11 | 219 | 0.0 | 0.0 | 0.00 | 1.07 | 1.07 | 95 | 1011.9 |
| 20260510014623 | 11 | 219 | 0.0 | 0.0 | 0.00 | 1.07 | 1.07 | 95 | 1012.1 |
| 20260510013049 | 11 | 219 | 0.0 | 0.0 | 0.00 | 1.07 | 1.07 | 95 | 1012.1 |
| 20260510011512 | 11 | 220 | 0.0 | 0.0 | 0.03 | 1.07 | 1.07 | 95 | 1012.2 |
| 20260510010106 | 11 | 216 | 0.0 | 0.0 | 0.03 | 1.07 | 1.07 | 95 | 1012.2 |
| 20260510004524 | 11 | 211 | 0.0 | 0.0 | 0.03 | 1.07 | 1.07 | 96 | 1012.2 |
| 20260510003126 | 11 | 208 | 0.0 | 0.0 | 0.05 | 1.07 | 1.07 | 96 | 1012.2 |
| 20260510001545 | 12 | 225 | 0.0 | 0.0 | 0.03 | 1.04 | 1.04 | 96 | 1012.1 |
| 20260510000006 | 12 | 227 | 0.0 | 0.0 | 0.08 | 1.04 | 1.04 | 95 | 1012.1 |
| 20260509234632 | 12 | 215 | 0.0 | 0.0 | 0.18 | 1.04 | 1.04 | 95 | 1012.1 |
| 20260509233050 | 12 | 217 | 0.0 | 0.0 | 0.30 | 1.02 | 1.02 | 95 | 1012.1 |
| 20260509231513 | 12 | 218 | 0.0 | 0.0 | 0.46 | 1.02 | 1.02 | 95 | 1012.0 |
| 20260509230109 | 12 | 216 | 0.0 | 0.0 | 0.61 | 0.97 | 0.97 | 95 | 1012.0 |
| 20260509224548 | 12 | 206 | 0.0 | 0.0 | 0.58 | 0.86 | 0.86 | 95 | 1011.9 |
| 20260509223011 | 12 | 242 | 0.0 | 0.0 | 0.51 | 0.71 | 0.71 | 94 | 1011.9 |
| 20260509221550 | 12 | 236 | 0.0 | 0.0 | 0.41 | 0.56 | 0.56 | 94 | 1011.7 |
| 20260509220009 | 12 | 238 | 0.0 | 0.0 | 0.28 | 0.36 | 0.36 | 94 | 1011.4 |
| 20260509214627 | 12 | 220 | 0.0 | 0.0 | 0.20 | 0.28 | 0.28 | 93 | 1011.3 |
| 20260509213101 | 12 | 216 | 0.0 | 0.0 | 0.13 | 0.20 | 0.20 | 92 | 1011.4 |
| 20260509211506 | 13 | 167 | 0.0 | 0.0 | 0.05 | 0.13 | 0.13 | 89 | 1011.3 |
| 20260509210104 | 13 | 206 | 0.0 | 0.0 | 0.00 | 0.08 | 0.08 | 84 | 1010.9 |
| 20260509204512 | 13 | 218 | 0.0 | 0.0 | 0.00 | 0.08 | 0.08 | 83 | 1010.5 |
| 20260509203104 | 13 | 217 | 0.0 | 0.0 | 0.00 | 0.08 | 0.08 | 85 | 1010.8 |
| 20260509201522 | 14 | 243 | 0.0 | 0.0 | 0.00 | 0.08 | 0.08 | 81 | 1010.8 |
| 20260509200112 | 15 | 219 | 0.0 | 0.0 | 0.00 | 0.08 | 0.08 | 77 | 1010.9 |
| 20260509194544 | 15 | 227 | 0.0 | 0.0 | 0.00 | 0.08 | 0.08 | 75 | 1010.9 |
| 20260509193006 | 15 | 217 | 0.0 | 0.0 | 0.00 | 0.08 | 0.08 | 76 | 1010.9 |
| 20260509191604 | 15 | 236 | 0.0 | 0.0 | 0.00 | 0.08 | 0.08 | 76 | 1011.0 |
| 20260509190026 | 15 | 273 | 0.0 | 0.0 | 0.00 | 0.08 | 0.08 | 77 | 1011.1 |
| 20260509184615 | 14 | 217 | 0.0 | 0.0 | 0.00 | 0.08 | 0.08 | 79 | 1011.1 |
| 20260509183023 | 14 | 277 | 0.0 | 0.0 | 0.00 | 0.08 | 0.08 | 79 | 1011.3 |
| 20260509181611 | 13 | 205 | 0.0 | 0.0 | 0.00 | 0.08 | 0.08 | 83 | 1011.3 |
| 20260509180024 | 13 | 226 | 0.0 | 0.0 | 0.00 | 0.08 | 0.08 | 83 | 1011.4 |
| 20260509174626 | 13 | 226 | 0.0 | 0.0 | 0.00 | 0.08 | 0.08 | 83 | 1011.8 |
| 20260509173052 | 13 | 238 | 0.0 | 0.0 | 0.00 | 0.08 | 0.08 | 79 | 1012.4 |
| 20260509171507 | 14 | 203 | 0.0 | 0.0 | 0.00 | 0.08 | 0.08 | 76 | 1012.2 |
| 20260509170058 | 14 | 206 | 0.0 | 0.0 | 0.00 | 0.08 | 0.08 | 73 | 1012.0 |
| 20260509164524 | 14 | 223 | 0.0 | 0.0 | 0.00 | 0.08 | 0.08 | 74 | 1011.9 |
| 20260509163117 | 14 | 222 | 0.0 | 0.0 | 0.00 | 0.08 | 0.08 | 74 | 1012.2 |
| 20260509161600 | 14 | 112 | 0.0 | 0.0 | 0.00 | 0.08 | 0.08 | 76 | 1012.0 |
| 20260509160020 | 14 | 259 | 0.0 | 0.0 | 0.00 | 0.08 | 0.08 | 80 | 1012.2 |
| 20260509154629 | 13 | 238 | 0.0 | 0.0 | 0.00 | 0.08 | 0.08 | 81 | 1012.4 |